HULIANWANG DIGUI-53

导读

HULIANWANG DIGUI-53(互联网低轨53星)是中国于2025年8月4日在海南商业航天发射场,通过长征十二号运载火箭成功发射的卫星互联网低轨卫星,隶属于卫星互联网低轨07组任务。该卫星进入预定轨道后,将助力中国低轨卫星互联网星座组网,为全球提供更广泛的卫星互联通信服务,支撑空天地一体化信息网络建设。

Basic Information
目录编号:
65110
目录名称:
HULIANWANG DIGUI-53
国际标识:
2025-168E
轨道中心:
EARTH
卫星名称:
HULIANWANG DIGUI-53
卫星全名:
HULIANWANG DIGUI-53
卫星状态:
在轨 (已飞行403 天)
发射日期:
2025-08-04 UTC
国别 :
中国 (CN)
星等 :
--
Orbit Information
数据来源 国际轨道数据 AOE轨道数据
星历时间 2026-09-11T00:21:56+0800
10小时前
查看轨道信息
2026-09-07T04:00:00+0800
4天前
查看轨道信息
半长轴 7527.429km 7527.428km
偏心率 0.000821 0.0008329
轨道倾角 50.006° 50.006°
近地点辐角 347.477° 336.343°
升交点赤经 19.060° 32.863°
平近点角 12.590° 314.665°
近地点 1143.111km 1143.021km
远地点 1155.473km 1155.561km
周期 108.325分钟 108.325分钟
每日圈数 13.2933 13.293302
Detailed Information
使用方式:
暂无
2D Orbit Map
3D Orbit Map
Orbit Altitude Analysis Chart
Orbit Inclination Analysis Chart
Orbit Comprehensive Analysis Chart
View Comprehensive Chart
Conjunction Data List
Event ID Objects TCA Miss Dist (km) Collision Risk Probability Collision Risk Index (CRI) Action
CDM_260910-231500-970106-511027
2026-09-10T
23:15:35+0000
2.727 km
极远距离
1.438281E-6 低风险 0.38
Miss Distance Evolution Trend with All Objects
Collision Probability Evolution Trend with All Objects